[[{"header":{"parameterUnit":"m.s-1","parameterCategory":1,"la1":30.2991,"la2":30.254,"lo1":-89.0895,"lo2":-89.0444,"dy":0.0017,"dx":0.0017,"nx":28,"ny":28,"refTime":"2025-06-19T03:00:00:Z","depth":0,"parameterNumber":2,"parameterNumberName":"U-component_of_WINDS"},"data":[0,0,0,0,0,0,0,0,0,0,0,0,0,0,0,0,0,0,0,0,0,0,0,0,0,0,0,0,0,0,0,0,0,0,0,0,0,0,0,0,0,0,0,0,0,0,0,0,0,0,0,0,0,0,0,0,0,0,2.0629,2.063,0,2.069,2.069,2.0691,2.0717,2.0717,2.0717,2.0717,2.0781,2.0783,2.0785,0,0,0,0,0,0,0,0,0,0,0,0,0,2.0538,2.054,2.0629,2.063,2.0631,2.0689,2.069,2.0691,2.0717,2.0717,2.0717,2.0716,2.0781,2.0783,2.0785,0,0,0,0,0,0,0,0,0,0,0,0,0,2.0586,2.054,2.0629,2.065,2.0653,2.0689,2.069,2.0691,2.0717,2.0717,2.0717,2.0716,2.078,2.0783,2.0785,2.0806,0,0,2.0794,2.0795,0,0,0,0,0,0,0,0,2.0583,2.0589,2.0646,2.0649,2.0652,2.0695,2.0682,2.073,2.0717,2.0693,2.0717,2.0716,2.0753,2.0758,2.077,2.0809,2.0811,2.0794,2.0796,2.0797,2.0797,0,0,0,0,0,0,0,2.058,2.0587,2.0653,2.0647,2.0651,2.0658,2.0664,2.0691,2.0723,2.0695,2.0697,2.0703,2.0754,2.0767,2.0771,2.0812,2.0794,2.0796,2.0798,2.0799,2.0871,2.0871,0,0,0,0,0,0,2.0573,2.0584,2.0651,2.0655,2.0616,2.066,2.0667,2.0682,2.0723,2.0729,2.0704,2.0704,2.0762,2.0768,2.0774,2.08,2.0797,2.0799,2.0801,2.0871,2.0871,2.0871,0,0,0,0,0,0,2.0571,2.0579,2.0649,2.062,2.0629,2.0661,2.0678,2.0683,2.0696,2.0729,2.0736,2.071,2.0763,2.077,2.0797,2.0803,2.08,2.0803,2.0871,2.0871,2.0871,2.0854,0,0,0,0,0,0,2.0568,2.0578,2.0585,2.062,2.0631,2.067,2.0678,2.0684,2.07,2.0702,2.0737,2.0743,2.0763,2.0793,2.08,2.0807,2.0805,2.087,2.0871,2.0871,2.0854,2.0853,2.0853,0,0,0,0,0,2.0565,2.0578,2.0585,2.0593,2.0641,2.0671,2.0677,2.0699,2.07,2.0708,2.073,2.0742,2.0801,2.0796,2.0804,2.0811,2.087,2.0871,2.0871,2.0854,2.0853,2.0853,0,0,0,0,0,0,2.0544,2.0583,2.0592,2.0617,2.064,2.0675,2.0686,2.0697,2.0721,2.0722,2.0749,2.0757,2.0782,2.0799,2.0793,2.0833,2.0837,2.0839,2.0821,2.0821,2.082,2.0816,2.0807,0,0,0,0,0,2.0542,2.0563,2.0596,2.0615,2.0626,2.0654,2.0668,2.0682,2.0708,2.0718,2.0742,2.0767,2.0791,2.0807,2.0831,2.0856,2.0865,2.0866,2.0865,2.0865,2.0866,2.0881,2.0882,2.0873,2.0873,2.0873,0,0,2.0539,2.0563,2.0574,2.0611,2.0631,2.0652,2.0662,2.0684,2.07,2.0722,2.0749,2.0767,2.0797,2.0823,2.0836,2.0839,2.0871,2.0865,2.0865,2.0867,2.0882,2.0883,2.0884,2.0874,2.0874,2.0874,0,0,2.0545,2.0564,2.0582,2.0602,2.0631,2.0649,2.0654,2.0687,2.07,2.0727,2.0744,2.0764,2.0805,2.0825,2.0841,2.0854,2.0866,2.0861,2.0859,2.0873,2.0874,2.0875,2.0879,2.0881,2.0863,2.0863,2.0863,0,2.0537,2.0569,2.059,2.0611,2.0627,2.0647,2.0665,2.0684,2.072,2.0731,2.0733,2.0785,2.0806,2.0838,2.0841,2.0853,2.0859,2.0857,2.0872,2.0873,2.0874,2.0879,2.088,2.0862,2.0862,2.0862,2.0862,0,2.0558,2.058,2.0591,2.0625,2.0642,2.0662,2.0687,2.0702,2.0715,2.0733,2.0761,2.0787,2.0817,2.0826,2.0839,2.0859,2.086,2.0866,2.087,2.0873,2.0879,2.0881,2.0861,2.0861,2.0861,2.0861,0,0,2.0553,2.0597,2.0601,2.0617,2.065,2.0668,2.0689,2.0717,2.073,2.0754,2.0772,2.0807,2.0813,2.0831,2.0847,2.0859,2.0868,2.0864,2.0866,2.0864,2.0892,2.0887,2.0888,2.0875,2.0876,2.0876,2.0889,0,2.0563,2.06,2.062,2.0649,2.0669,2.0688,2.0706,2.0729,2.0747,2.0768,2.0788,2.0811,2.0818,2.0829,2.0842,2.0864,2.0873,2.0863,2.0894,2.0895,2.0886,2.0891,2.0886,2.0897,2.0892,2.0892,2.0892,0,2.0579,2.0602,2.0633,2.0664,2.0674,2.069,2.0717,2.0736,2.0763,2.0775,2.0795,2.081,2.0834,2.0835,2.0869,2.0861,2.0875,2.0887,2.0888,2.0892,2.0894,2.0896,2.0901,2.0903,2.0895,2.0895,2.0895,0,2.0572,2.0611,2.0634,2.0647,2.0684,2.0695,2.0711,2.0738,2.0753,2.0778,2.0788,2.0815,2.083,2.0851,2.0874,2.0873,2.0905,2.0908,2.0916,2.0915,2.0922,2.0922,2.093,2.093,2.093,2.093,2.093,0,2.0581,2.06,2.0632,2.0646,2.0667,2.069,2.0711,2.0729,2.0752,2.0771,2.0789,2.0807,2.0835,2.0856,2.0874,2.0899,2.0906,2.0917,2.0921,2.0915,2.0914,2.0925,2.0925,2.0931,2.0931,2.0931,2.0931,0,2.0577,2.0599,2.0626,2.0659,2.0668,2.0682,2.071,2.0725,2.0744,2.0767,2.0774,2.0803,2.0829,2.0853,2.0888,2.09,2.0925,2.0931,2.0916,2.0919,2.0925,2.0924,2.0941,2.0945,2.0942,2.0942,2.0942,0,2.0582,2.0596,2.063,2.0643,2.0659,2.068,2.0696,2.072,2.0735,2.0767,2.0778,2.0805,2.0828,2.0869,2.0894,2.0921,2.0928,2.0932,2.0932,2.0925,2.0928,2.0927,2.0929,2.0931,2.0931,2.0931,2.0931,0,2.0587,2.0598,2.0619,2.0645,2.0663,2.0684,2.0707,2.0717,2.0744,2.0762,2.0788,2.0805,2.084,2.0867,2.0897,2.0915,2.0928,2.0931,2.0934,2.0928,2.0919,2.0924,2.0915,2.093,2.093,2.0931,2.0931,2.0931,2.0588,2.0602,2.0627,2.0651,2.067,2.069,2.0706,2.0726,2.0748,2.0777,2.079,2.0817,2.0844,2.0884,2.0902,2.0924,2.0927,2.0931,2.0933,2.0933,2.0932,2.0915,2.0929,2.0929,2.0929,2.0929,2.0929,0,2.0595,2.0612,2.0634,2.0664,2.0682,2.0692,2.0717,2.0732,2.0755,2.0778,2.08,2.083,2.0856,2.0883,2.0911,2.0923,2.093,2.093,2.0929,2.0933,2.0928,2.0922,2.0924,2.0924,2.0924,2.0924,2.0924,2.0924,2.0601,2.0624,2.0637,2.067,2.0688,2.0713,2.0727,2.0746,2.0765,2.0797,2.0819,2.0835,2.086,2.089,2.0915,2.0922,2.0931,2.0929,2.0938,2.0933,2.0933,2.0934,2.0929,2.0931,2.0931,2.0942,2.0942,2.0942]},{"header":{"parameterUnit":"m.s-1","parameterCategory":1,"la1":30.2991,"la2":30.254,"lo1":-89.0895,"lo2":-89.0444,"dy":0.0017,"dx":0.0017,"nx":28,"ny":28,"refTime":"2025-06-19T03:00:00:Z","depth":0,"parameterNumber":3,"parameterNumberName":"V-component_of_WINDS"},"data":[0,0,0,0,0,0,0,0,0,0,0,0,0,0,0,0,0,0,0,0,0,0,0,0,0,0,0,0,0,0,0,0,0,0,0,0,0,0,0,0,0,0,0,0,0,0,0,0,0,0,0,0,0,0,0,0,0,0,1.703,1.7029,0,1.6985,1.6984,1.6984,1.697,1.697,1.6971,1.6971,1.6922,1.692,1.6919,0,0,0,0,0,0,0,0,0,0,0,0,0,1.71,1.7099,1.703,1.7029,1.7028,1.6985,1.6984,1.6984,1.697,1.697,1.6971,1.6971,1.6922,1.6921,1.6919,0,0,0,0,0,0,0,0,0,0,0,0,0,1.7064,1.7099,1.703,1.7016,1.7015,1.6985,1.6984,1.6984,1.697,1.697,1.6971,1.6971,1.6923,1.6921,1.6919,1.6898,0,0,1.6912,1.6911,0,0,0,0,0,0,0,0,1.7066,1.7061,1.7019,1.7017,1.7015,1.6984,1.6991,1.6955,1.697,1.6987,1.6971,1.6971,1.6942,1.6938,1.6929,1.6895,1.6893,1.6911,1.691,1.6909,1.6908,0,0,0,0,0,0,0,1.7069,1.7063,1.7012,1.7018,1.7016,1.7012,1.7007,1.6984,1.6963,1.6985,1.6984,1.6979,1.6941,1.6931,1.6928,1.6893,1.6912,1.691,1.6908,1.6907,1.684,1.6839,0,0,0,0,0,0,1.7074,1.7065,1.7013,1.701,1.7042,1.701,1.7005,1.6993,1.6963,1.6959,1.6979,1.6979,1.6935,1.693,1.6926,1.6899,1.6909,1.6907,1.6906,1.684,1.684,1.6839,0,0,0,0,0,0,1.7075,1.7069,1.7015,1.7038,1.703,1.7009,1.6996,1.6992,1.6982,1.6959,1.6954,1.6973,1.6935,1.6929,1.6905,1.6897,1.6906,1.6904,1.6841,1.684,1.684,1.6846,0,0,0,0,0,0,1.7077,1.707,1.7062,1.7038,1.7029,1.6996,1.6995,1.6991,1.6979,1.6978,1.6952,1.6948,1.6935,1.6909,1.6903,1.6894,1.6902,1.6841,1.684,1.684,1.6847,1.6846,1.6845,0,0,0,0,0,1.708,1.7065,1.7062,1.7056,1.702,1.6995,1.699,1.6977,1.6978,1.697,1.6955,1.6948,1.69,1.6906,1.69,1.689,1.6842,1.6841,1.684,1.6847,1.6846,1.6845,0,0,0,0,0,0,1.7088,1.7062,1.7058,1.7035,1.7018,1.6993,1.6982,1.6976,1.6957,1.6957,1.694,1.6934,1.6912,1.6899,1.6907,1.6869,1.687,1.6868,1.6878,1.6877,1.6876,1.6879,1.69,0,0,0,0,0,1.7088,1.7071,1.7049,1.703,1.7022,1.7004,1.6993,1.6984,1.6965,1.6957,1.694,1.6921,1.6901,1.6888,1.6869,1.6845,1.6839,1.6836,1.6835,1.6835,1.6832,1.6818,1.6817,1.6836,1.6836,1.6836,0,0,1.7086,1.7069,1.706,1.7032,1.7017,1.7,1.6998,1.6979,1.6966,1.6954,1.693,1.6917,1.6895,1.6871,1.6859,1.6859,1.6826,1.6833,1.6833,1.6831,1.6817,1.6815,1.6814,1.6835,1.6836,1.6836,0,0,1.7073,1.7059,1.7043,1.7029,1.7007,1.6995,1.6992,1.6968,1.6959,1.6936,1.6927,1.691,1.6877,1.6861,1.6849,1.6831,1.6825,1.6826,1.6822,1.6808,1.6807,1.6805,1.6799,1.6796,1.6824,1.6824,1.6824,0,1.7073,1.7047,1.7035,1.7017,1.7004,1.6995,1.6977,1.6964,1.6937,1.6928,1.6929,1.6887,1.6871,1.6843,1.6839,1.683,1.6824,1.6828,1.6808,1.6807,1.6805,1.6798,1.6796,1.6824,1.6824,1.6824,1.6824,0,1.7048,1.703,1.7019,1.6994,1.6981,1.6963,1.6948,1.6935,1.6928,1.6916,1.6892,1.6873,1.685,1.6842,1.6834,1.6813,1.6814,1.6812,1.6813,1.6804,1.6797,1.6794,1.6824,1.6824,1.6824,1.6824,0,0,1.7037,1.7008,1.7004,1.6992,1.6969,1.6954,1.6936,1.6915,1.6904,1.6886,1.687,1.6842,1.6841,1.6827,1.6817,1.6805,1.6792,1.6805,1.6804,1.6802,1.6767,1.6769,1.6766,1.6788,1.6788,1.6787,1.6769,0,1.7021,1.699,1.6978,1.6952,1.6935,1.6926,1.691,1.6893,1.6882,1.6865,1.6852,1.6833,1.6832,1.6823,1.6812,1.6797,1.6785,1.6798,1.6772,1.6771,1.6777,1.6762,1.6763,1.6747,1.6766,1.6766,1.6766,0,1.6998,1.6981,1.6953,1.6932,1.6924,1.691,1.689,1.6874,1.6855,1.6848,1.6833,1.6824,1.6804,1.6807,1.6779,1.6788,1.6777,1.6768,1.6767,1.6763,1.6767,1.6757,1.6741,1.6739,1.6762,1.6762,1.6762,0,1.6992,1.6962,1.6942,1.6933,1.6908,1.6898,1.6887,1.6869,1.6857,1.6838,1.683,1.6809,1.6798,1.6782,1.6767,1.6771,1.674,1.6742,1.6732,1.6733,1.6725,1.6726,1.6706,1.672,1.672,1.672,1.672,0,1.6975,1.6958,1.6939,1.6927,1.6908,1.6895,1.6876,1.6864,1.6848,1.6832,1.6823,1.6808,1.6791,1.6773,1.6762,1.674,1.6735,1.6728,1.6725,1.6728,1.6729,1.672,1.672,1.6719,1.6719,1.672,1.672,0,1.6965,1.6952,1.6929,1.6908,1.6902,1.6889,1.687,1.6857,1.6846,1.6826,1.6821,1.6802,1.6782,1.6766,1.6739,1.6732,1.6708,1.6705,1.6715,1.6713,1.6704,1.6705,1.6677,1.6672,1.669,1.669,1.669,0,1.6954,1.6941,1.6919,1.6908,1.6898,1.6881,1.6869,1.6856,1.6843,1.6821,1.681,1.679,1.6772,1.6739,1.6723,1.6702,1.6698,1.669,1.6695,1.6699,1.6697,1.6698,1.6696,1.6689,1.6689,1.6689,1.6689,0,1.6935,1.693,1.6914,1.6895,1.6882,1.6866,1.685,1.6842,1.6826,1.6812,1.6792,1.6778,1.6752,1.6731,1.6708,1.6696,1.6689,1.6688,1.6684,1.6687,1.6692,1.6689,1.6712,1.6688,1.6688,1.6688,1.6688,1.6688,1.6924,1.6912,1.6895,1.6877,1.6864,1.685,1.6837,1.6825,1.6808,1.6786,1.6779,1.6758,1.6739,1.6709,1.6696,1.6679,1.6679,1.6674,1.6672,1.6671,1.6671,1.6696,1.6675,1.6675,1.6675,1.6675,1.6675,0,1.6905,1.6894,1.6878,1.6857,1.6842,1.6839,1.6822,1.681,1.6792,1.6775,1.6759,1.6735,1.6715,1.6698,1.6677,1.6666,1.6662,1.6661,1.6661,1.6658,1.6672,1.6677,1.6664,1.6664,1.6664,1.6664,1.6664,1.6664,1.6893,1.6873,1.6865,1.6839,1.6827,1.6807,1.6798,1.6784,1.6771,1.6746,1.673,1.6719,1.6702,1.668,1.6661,1.6657,1.6649,1.6648,1.6642,1.6656,1.6657,1.6658,1.6662,1.6646,1.6646,1.6629,1.6629,1.6629]}]]